York, NE

1:02 AM CDT on October 23, 2019 (GMT -0500)
York Municipal

Weather History for KJYR - August, 2019

Change the Weather History Date:

Wednesday, August 7, 2019

  Actual Average Record
Temperature  
Mean Temperature 74 °F -  
Max Temperature 84 °F 87 °F 100 °F (1980)
Min Temperature 64 °F 63 °F 48 °F (1989)
Cooling Degree Days 9    
Growing Degree Days 24 (Base 50)    
Moisture  
Dew Point 68 °F    
Average Humidity 84    
Maximum Humidity 100    
Minimum Humidity 62    
Precipitation  
Precipitation 0.55 in - - ()
Sea Level Pressure  
Sea Level Pressure 29.92 in    
Wind  
Wind Speed 8 mph (SW)    
Max Wind Speed 23 mph    
Max Gust Speed 32 mph    
Visibility 9 miles    
Events Rain , Thunderstorm    
Averages and records for this station are not official NWS values.
T = Trace of Precipitation, MM = Missing Value Source: NWS Daily Summary

Daily Weather History Graph

Daily Weather History Graph

Search for Another Location

Airport or City:

Astronomy

Aug. 07, 2019 Rise Set
Actual Time 6:32 AM CDT 8:39 PM CDT
Civil Twilight 6:02 AM CDT 9:09 PM CDT
Nautical Twilight 5:24 AM CDT 9:46 PM CDT
Astronomical Twilight 4:44 AM CDT 10:26 PM CDT
Moon 2:09 PM CDT (8/7) 12:23 AM CDT (8/7)
Length of Visible Light 15h 07m
Length of Day
14h 07m
Waxing Crescent, 50% of the Moon is Illuminated
Aug 7
Waxing Crescent
Aug 7
First Quarter
Aug 15
Full
Aug 23
Last Quarter
Aug 30
New

Hourly Weather History & Observations

Time (CDT) Temp. Heat Index Dew Point Humidity Pressure Visibility Wind Dir Wind Speed Gust Speed Precip Events Conditions
12:15 AM 71.6 °F - 64.4 °F 78% 29.89 in 10.0 mi SSE 9.2 mph - N/A   Clear
12:35 AM 71.6 °F - 64.4 °F 78% 29.90 in 10.0 mi SSE 9.2 mph - N/A   Clear
12:55 AM 71.6 °F - 64.4 °F 78% 29.92 in 10.0 mi SE 10.4 mph - N/A   Clear
1:15 AM 71.6 °F - 64.4 °F 78% 29.93 in 10.0 mi ESE 11.5 mph - N/A   Clear
1:35 AM 71.6 °F - 64.4 °F 78% 29.94 in 10.0 mi Calm Calm - N/A   Mostly Cloudy
1:55 AM 69.8 °F - 64.4 °F 83% 29.92 in 10.0 mi Calm Calm - N/A Rain , Thunderstorm Light Rain
2:15 AM 71.6 °F - 64.4 °F 78% 29.93 in 10.0 mi NE 11.5 mph - N/A Rain , Thunderstorm Light Rain
2:35 AM 69.8 °F - 66.2 °F 88% 29.97 in 9.0 mi NE 23.0 mph 29.9 mph N/A Rain Light Rain
2:55 AM 66.2 °F - 64.4 °F 94% 29.98 in 5.0 mi NE 21.9 mph 32.2 mph 0.04 in Rain , Thunderstorm Rain
3:15 AM 64.4 °F - 62.6 °F 94% 29.97 in 4.0 mi ENE 21.9 mph 31.1 mph 0.10 in Rain , Thunderstorm Heavy Rain
3:35 AM 66.2 °F - 64.4 °F 94% 29.97 in 3.0 mi NE 21.9 mph 29.9 mph 0.28 in Rain , Thunderstorm Heavy Thunderstorms and Rain
3:55 AM 68.0 °F - 64.4 °F 88% 30.01 in 5.0 mi SW 4.6 mph - 0.35 in Rain , Thunderstorm Thunderstorms and Rain
4:15 AM 66.2 °F - 64.4 °F 94% 29.95 in 10.0 mi ESE 16.1 mph - 0.01 in Rain , Thunderstorm Light Thunderstorms and Rain
4:35 AM 66.2 °F - 64.4 °F 94% 29.93 in 7.0 mi South 10.4 mph - 0.02 in Rain , Thunderstorm Light Rain
4:55 AM 66.2 °F - 64.4 °F 94% 29.89 in 9.0 mi South 16.1 mph 21.9 mph 0.03 in Rain , Thunderstorm Light Rain
5:15 AM 66.2 °F - 64.4 °F 94% 29.89 in 10.0 mi SSW 11.5 mph - N/A Thunderstorm Overcast
5:35 AM 66.2 °F - 64.4 °F 94% 29.88 in 10.0 mi SW 11.5 mph - N/A Thunderstorm Mostly Cloudy
5:55 AM 66.2 °F - 64.4 °F 94% 29.91 in 10.0 mi WSW 10.4 mph - N/A   Mostly Cloudy
6:15 AM 66.2 °F - 64.4 °F 94% 29.91 in 9.0 mi SW 5.8 mph - N/A Rain Light Rain
6:35 AM 66.2 °F - 64.4 °F 94% 29.93 in 8.0 mi West 8.1 mph - 0.01 in Rain Light Rain
6:55 AM 66.2 °F - 64.4 °F 94% 29.91 in 10.0 mi South 12.7 mph - 0.02 in Thunderstorm Thunderstorm
7:15 AM 66.2 °F - 64.4 °F 94% 29.88 in 10.0 mi South 10.4 mph - N/A Thunderstorm Mostly Cloudy
7:35 AM 66.2 °F - 64.4 °F 94% 29.87 in 10.0 mi South 8.1 mph - N/A   Scattered Clouds
7:55 AM 66.2 °F - 64.4 °F 94% 29.90 in 10.0 mi WSW 13.8 mph - N/A   Mostly Cloudy
8:15 AM 66.2 °F - 64.4 °F 94% 29.97 in 5.0 mi WNW 17.3 mph 24.2 mph 0.03 in Rain , Thunderstorm Rain
8:35 AM 66.2 °F - 64.4 °F 94% 29.97 in 10.0 mi West 12.7 mph - 0.04 in Rain , Thunderstorm Light Rain
8:55 AM 66.2 °F - 64.4 °F 94% 29.96 in 8.0 mi WSW 10.4 mph - 0.05 in Rain Light Rain
9:15 AM 66.2 °F - 64.4 °F 94% 29.90 in 5.0 mi South 9.2 mph - 0.02 in Rain Light Rain
9:35 AM 66.2 °F - 66.2 °F 100% 29.86 in 10.0 mi South 11.5 mph - 0.03 in   Partly Cloudy
9:55 AM 68.0 °F - 66.2 °F 94% 29.88 in 10.0 mi SW 9.2 mph - 0.03 in   Clear
10:15 AM 69.8 °F - 66.2 °F 88% 29.90 in 10.0 mi SW 11.5 mph - N/A   Clear
10:35 AM 69.8 °F - 66.2 °F 88% 29.86 in 10.0 mi Calm Calm - N/A   Clear
10:55 AM 71.6 °F - 68.0 °F 88% 29.89 in 3.0 mi SW 10.4 mph - N/A   Clear
11:15 AM 73.4 °F - 66.2 °F 78% 29.91 in - West 4.6 mph - N/A   Clear
11:35 AM 75.2 °F - 68.0 °F 78% 29.92 in 10.0 mi SSW 3.5 mph - 0.03 in   Clear
11:55 AM 77.0 °F - 68.0 °F 74% 29.92 in - ENE 3.5 mph - 0.03 in   Clear
12:15 PM 77.0 °F - 68.0 °F 74% 29.93 in 10.0 mi Calm Calm - N/A   Scattered Clouds
12:35 PM 77.0 °F - 68.0 °F 74% 29.94 in 10.0 mi Calm Calm - N/A   Mostly Cloudy
12:55 PM 78.8 °F - 69.8 °F 74% 29.94 in 10.0 mi Calm Calm - N/A   Scattered Clouds
1:15 PM 77.0 °F - 69.8 °F 78% 29.95 in 10.0 mi West 8.1 mph - N/A   Mostly Cloudy
1:35 PM 77.0 °F - 69.8 °F 78% 29.93 in 10.0 mi WSW 3.5 mph - N/A   Scattered Clouds
1:55 PM 77.0 °F - 71.6 °F 83% 29.92 in 10.0 mi Calm Calm - N/A   Clear
2:15 PM 78.8 °F - 71.6 °F 78% 29.93 in 10.0 mi Calm Calm - N/A   Clear
2:35 PM 80.6 °F 84.6 °F 71.6 °F 74% 29.92 in 10.0 mi NNW 3.5 mph - N/A   Clear
2:55 PM 80.6 °F 84.6 °F 71.6 °F 74% 29.92 in 10.0 mi NW 3.5 mph - N/A   Clear
3:15 PM 80.6 °F 84.6 °F 71.6 °F 74% 29.92 in 10.0 mi Calm Calm - N/A   Clear
3:35 PM 80.6 °F 84.6 °F 71.6 °F 74% 29.92 in 10.0 mi WNW 3.5 mph - N/A   Clear
3:55 PM 82.4 °F 88.2 °F 73.4 °F 74% 29.91 in 10.0 mi Calm Calm - N/A   Clear
4:15 PM 82.4 °F 87.2 °F 71.6 °F 70% 29.91 in 10.0 mi WNW 3.5 mph - N/A   Clear
4:35 PM 82.4 °F 87.2 °F 71.6 °F 70% 29.91 in 10.0 mi Calm Calm - N/A   Clear
4:55 PM 82.4 °F 87.2 °F 71.6 °F 70% 29.91 in 10.0 mi Calm Calm - N/A   Clear
5:15 PM 84.2 °F 88.4 °F 69.8 °F 62% 29.91 in 10.0 mi Calm Calm - N/A   Clear
5:35 PM 84.2 °F 89.6 °F 71.6 °F 66% 29.91 in 10.0 mi Calm Calm - N/A   Clear
5:55 PM 84.2 °F 88.4 °F 69.8 °F 62% 29.90 in 10.0 mi Calm Calm - N/A   Clear
6:15 PM 84.2 °F 89.6 °F 71.6 °F 66% 29.90 in 10.0 mi Calm Calm - N/A   Clear
6:35 PM 82.4 °F 88.2 °F 73.4 °F 74% 29.90 in 10.0 mi Calm Calm - N/A   Clear
6:55 PM 82.4 °F 88.2 °F 73.4 °F 74% 29.89 in 10.0 mi SSW 3.5 mph - N/A   Clear
7:15 PM 82.4 °F 88.2 °F 73.4 °F 74% 29.89 in 10.0 mi Calm Calm - N/A   Clear
7:35 PM 82.4 °F 88.2 °F 73.4 °F 74% 29.90 in 10.0 mi Calm Calm - N/A   Clear
7:55 PM 80.6 °F 86.2 °F 75.2 °F 84% 29.90 in 10.0 mi Calm Calm - N/A   Clear
8:15 PM 80.6 °F 85.4 °F 73.4 °F 79% 29.90 in 10.0 mi Calm Calm - N/A   Clear
8:35 PM 77.0 °F - 73.4 °F 89% 29.91 in 10.0 mi Calm Calm - N/A   Clear
8:55 PM 77.0 °F - 71.6 °F 83% 29.91 in 10.0 mi Calm Calm - N/A   Clear
9:15 PM 75.2 °F - 71.6 °F 89% 29.91 in 10.0 mi Calm Calm - N/A   Clear
9:35 PM 75.2 °F - 71.6 °F 89% 29.92 in 10.0 mi Calm Calm - N/A Rain Light Rain
9:55 PM 71.6 °F - 71.6 °F 100% 29.93 in 10.0 mi Calm Calm - N/A   Clear
10:15 PM 73.4 °F - 71.6 °F 94% 29.93 in 10.0 mi Calm Calm - N/A Rain Light Rain
10:35 PM 71.6 °F - 71.6 °F 100% 29.93 in 10.0 mi Calm Calm - N/A   Clear
10:55 PM 71.6 °F - 71.6 °F 100% 29.94 in 10.0 mi Calm Calm - N/A   Clear
11:15 PM 71.6 °F - 71.6 °F 100% 29.94 in 10.0 mi Calm Calm - N/A   Clear
11:35 PM 71.6 °F - 71.6 °F 100% 29.94 in 10.0 mi Calm Calm - N/A   Clear
11:55 PM 71.6 °F - 69.8 °F 94% 29.93 in 10.0 mi Calm Calm - N/A   Clear